Location: Colorado Springs
(38.8340°N, 104.8210°W)
Time: 03:40:50
(UTC-07:00)

Vanguard 1 Rocket - Visible Passes

Search period start: 17 January 2018 00:00
Search period end: 27 January 2018 00:00
Orbit: 656 x 4222 km, 34.3° (Epoch: 15 January)

Date Brightness Start Highest point End Pass type
(mag) Time Alt. Az. Time Alt. Az. Time Alt. Az.
17 Jan 10.7 05:21:13 10° SSW 05:31:41 23° SSE 05:38:29 10° ESE visible
18 Jan 11.1 04:10:15 10° S 04:19:23 17° SSE 04:26:04 10° ESE visible
18 Jan 9.9 06:35:05 10° SW 06:46:51 37° SSE 06:53:29 10° E visible
19 Jan 11.5 03:03:36 10° SSE 03:06:37 11° SE 03:09:22 10° SE visible
19 Jan 10.4 05:22:03 10° SSW 05:34:59 30° SSE 05:42:40 10° E visible
20 Jan 10.9 04:09:45 10° SSW 04:22:39 24° SSE 04:31:04 10° ESE visible
20 Jan 9.6 06:37:06 10° SW 06:50:07 46° SSE 06:57:05 10° E visible
21 Jan 11.3 02:59:10 10° S 03:09:51 17° SSE 03:17:53 10° ESE visible
21 Jan 10.1 05:23:23 10° SW 05:38:14 39° SSE 05:46:29 10° E visible
22 Jan 10.6 04:10:11 10° SSW 04:25:50 31° SSE 04:35:18 10° E visible
22 Jan 9.4 06:39:21 10° WSW 06:53:21 54° SSE 07:00:36 10° E visible
23 Jan 11.0 02:58:10 10° S 03:12:59 23° SSE 03:23:06 10° ESE visible
23 Jan 9.8 05:25:05 10° SW 05:41:25 47° SSE 05:50:05 10° E visible
24 Jan 11.4 01:51:08 12° SSE 01:59:47 16° SE 02:08:44 10° ESE visible
24 Jan 10.3 04:11:10 10° SW 04:28:58 39° SSE 04:39:09 10° E visible
24 Jan 9.2 06:41:47 10° WSW 06:56:34 61° S 07:04:02 10° E visible
25 Jan 10.8 03:04:15 19° S 03:16:01 31° SSE 03:27:28 10° E visible
25 Jan 9.7 05:27:03 10° SW 05:44:34 55° SSE 05:53:36 10° E visible
26 Jan 11.2 01:58:54 21° SSE 02:02:45 22° SE 02:14:24 10° E visible
26 Jan 10.1 04:16:21 17° SW 04:32:02 47° SSE 04:42:47 10° E visible
26 Jan 9.2 06:44:22 10° WSW 06:59:46 67° S 07:07:26 10° E visible
